| time (UTC) | temp F | wind direction | speed MPH | gust MPH | rain 1hr in | rain 24hr in | rain mn in | humidity % | barometer mb |
| 20260507165640 | 59 | 320 | 3.0 | 5.0 | 0.00 | 0.00 | 0.00 | 38 | 1015.8 |
| 20260507165136 | 59 | 72 | 0.0 | 2.0 | 0.00 | 0.00 | 0.00 | 37 | 1015.9 |
| 20260507164632 | 59 | 290 | 2.0 | 3.0 | 0.00 | 0.00 | 0.00 | 40 | 1015.7 |
| 20260507164130 | 59 | 346 | 3.0 | 5.0 | 0.00 | 0.00 | 0.00 | 40 | 1016.0 |
| 20260507163627 | 59 | 359 | 1.0 | 1.0 | 0.00 | 0.00 | 0.00 | 41 | 1016.0 |
| 20260507163125 | 58 | 326 | 3.0 | 5.0 | 0.00 | 0.00 | 0.00 | 41 | 1016.1 |
| 20260507162620 | 58 | 54 | 1.0 | 2.0 | 0.00 | 0.00 | 0.00 | 42 | 1015.8 |
| 20260507162117 | 58 | 20 | 1.0 | 1.0 | 0.00 | 0.00 | 0.00 | 42 | 1015.5 |
| 20260507161613 | 58 | 11 | 1.0 | 1.0 | 0.00 | 0.00 | 0.00 | 42 | 1016.0 |
| 20260507161109 | 58 | 29 | 2.0 | 2.0 | 0.00 | 0.00 | 0.00 | 39 | 1015.9 |
| 20260507160600 | 58 | 21 | 0.0 | 1.0 | 0.00 | 0.00 | 0.00 | 45 | 1015.5 |
| 20260507160056 | 57 | 340 | 1.0 | 2.0 | 0.00 | 0.00 | 0.00 | 46 | 1016.1 |
| 20260507155551 | 56 | 349 | 5.0 | 8.0 | 0.00 | 0.00 | 0.00 | 45 | 1015.9 |
| 20260507155049 | 56 | 16 | 1.0 | 2.0 | 0.00 | 0.00 | 0.00 | 45 | 1015.9 |
| 20260507154546 | 56 | 287 | 0.0 | 0.0 | 0.00 | 0.00 | 0.00 | 45 | 1015.8 |
| 20260507154043 | 56 | 315 | 4.0 | 6.0 | 0.00 | 0.00 | 0.00 | 46 | 1015.8 |
| 20260507153540 | 56 | 351 | 2.0 | 2.0 | 0.00 | 0.00 | 0.00 | 48 | 1015.7 |
| 20260507153036 | 55 | 79 | 0.0 | 0.0 | 0.00 | 0.00 | 0.00 | 48 | 1015.9 |
| 20260507152532 | 55 | 39 | 0.0 | 1.0 | 0.00 | 0.00 | 0.00 | 48 | 1015.8 |
| 20260507152029 | 55 | 338 | 3.0 | 3.0 | 0.00 | 0.00 | 0.00 | 51 | 1015.9 |
| 20260507151524 | 55 | 10 | 0.0 | 1.0 | 0.00 | 0.00 | 0.00 | 52 | 1015.8 |
| 20260507151022 | 54 | 327 | 2.0 | 3.0 | 0.00 | 0.00 | 0.00 | 51 | 1015.8 |
| 20260507150519 | 53 | 4 | 2.0 | 3.0 | 0.00 | 0.00 | 0.00 | 52 | 1015.7 |
| 20260507150015 | 53 | 321 | 3.0 | 3.0 | 0.00 | 0.00 | 0.00 | 51 | 1015.8 |
| 20260507145510 | 53 | 287 | 3.0 | 3.0 | 0.00 | 0.00 | 0.00 | 51 | 1015.9 |
| 20260507145009 | 53 | 355 | 1.0 | 2.0 | 0.00 | 0.00 | 0.00 | 53 | 1015.9 |
| 20260507144505 | 53 | 310 | 1.0 | 2.0 | 0.00 | 0.00 | 0.00 | 53 | 1016.1 |
| 20260507144002 | 53 | 335 | 2.0 | 2.0 | 0.00 | 0.00 | 0.00 | 52 | 1015.9 |
| 20260507143459 | 52 | 29 | 0.0 | 0.0 | 0.00 | 0.00 | 0.00 | 53 | 1015.8 |
| 20260507142956 | 52 | 353 | 2.0 | 2.0 | 0.00 | 0.00 | 0.00 | 52 | 1015.8 |
| 20260507142451 | 52 | 1 | 1.0 | 2.0 | 0.00 | 0.00 | 0.00 | 54 | 1015.8 |
| 20260507141949 | 52 | 44 | 1.0 | 1.0 | 0.00 | 0.00 | 0.00 | 53 | 1015.7 |
| 20260507141444 | 51 | 4 | 1.0 | 1.0 | 0.00 | 0.00 | 0.00 | 56 | 1015.8 |
| 20260507140942 | 51 | 59 | 0.0 | 1.0 | 0.00 | 0.00 | 0.00 | 54 | 1016.0 |
| 20260507140438 | 51 | 345 | 0.0 | 0.0 | 0.00 | 0.00 | 0.00 | 55 | 1015.9 |
| 20260507135936 | 51 | 346 | 1.0 | 1.0 | 0.00 | 0.00 | 0.00 | 53 | 1015.9 |
| 20260507135433 | 50 | 44 | 0.0 | 0.0 | 0.00 | 0.00 | 0.00 | 52 | 1016.0 |
| 20260507134930 | 50 | 46 | 0.0 | 0.0 | 0.00 | 0.00 | 0.00 | 52 | 1015.9 |
| 20260507134427 | 50 | 50 | 0.0 | 0.0 | 0.00 | 0.00 | 0.00 | 55 | 1015.9 |
| 20260507133922 | 50 | 351 | 0.0 | 0.0 | 0.00 | 0.00 | 0.00 | 54 | 1015.9 |
| 20260507133419 | 50 | 13 | 1.0 | 2.0 | 0.00 | 0.00 | 0.00 | 56 | 1015.7 |
| 20260507132917 | 50 | 335 | 0.0 | 0.0 | 0.00 | 0.00 | 0.00 | 58 | 1015.8 |
| 20260507132413 | 49 | 28 | 0.0 | 0.0 | 0.00 | 0.00 | 0.00 | 58 | 1015.8 |
| 20260507131910 | 49 | 24 | 1.0 | 2.0 | 0.00 | 0.00 | 0.00 | 60 | 1015.8 |
| 20260507131407 | 49 | 51 | 1.0 | 2.0 | 0.00 | 0.00 | 0.00 | 61 | 1016.0 |
| 20260507130904 | 48 | 31 | 0.0 | 0.0 | 0.00 | 0.00 | 0.00 | 61 | 1015.8 |
| 20260507130401 | 48 | 11 | 0.0 | 0.0 | 0.00 | 0.00 | 0.00 | 65 | 1015.8 |
| 20260507125900 | 48 | 0 | 1.0 | 2.0 | 0.00 | 0.00 | 0.00 | 64 | 1015.5 |
| 20260507125357 | 48 | 35 | 0.0 | 0.0 | 0.00 | 0.00 | 0.00 | 65 | 1015.8 |
| 20260507124854 | 47 | 39 | 3.0 | 3.0 | 0.00 | 0.00 | 0.00 | 65 | 1015.8 |
| 20260507124350 | 47 | 42 | 0.0 | 0.0 | 0.00 | 0.00 | 0.00 | 66 | 1015.7 |
| 20260507123849 | 47 | 109 | 1.0 | 1.0 | 0.00 | 0.00 | 0.00 | 67 | 1015.9 |
| 20260507123345 | 47 | 25 | 0.0 | 0.0 | 0.00 | 0.00 | 0.00 | 67 | 1015.9 |
| 20260507122842 | 46 | 36 | 0.0 | 0.0 | 0.00 | 0.00 | 0.00 | 70 | 1016.1 |
| 20260507122337 | 46 | 34 | 0.0 | 0.0 | 0.00 | 0.00 | 0.00 | 71 | 1015.9 |
| 20260507121834 | 46 | 27 | 1.0 | 1.0 | 0.00 | 0.00 | 0.00 | 71 | 1016.1 |
| 20260507121329 | 46 | 44 | 0.0 | 0.0 | 0.00 | 0.00 | 0.00 | 72 | 1016.0 |
| 20260507120826 | 45 | 42 | 0.0 | 0.0 | 0.00 | 0.00 | 0.00 | 74 | 1015.9 |
| 20260507120322 | 45 | 33 | 0.0 | 0.0 | 0.00 | 0.00 | 0.00 | 74 | 1016.1 |
| 20260507115819 | 45 | 335 | 1.0 | 2.0 | 0.00 | 0.00 | 0.00 | 74 | 1016.2 |
| 20260507115315 | 44 | 37 | 0.0 | 0.0 | 0.00 | 0.00 | 0.00 | 76 | 1016.1 |
| 20260507114811 | 44 | 10 | 0.0 | 0.0 | 0.00 | 0.00 | 0.00 | 78 | 1016.0 |
| 20260507114308 | 44 | 35 | 0.0 | 0.0 | 0.00 | 0.00 | 0.00 | 78 | 1016.0 |
| 20260507113805 | 44 | 337 | 2.0 | 2.0 | 0.00 | 0.00 | 0.00 | 79 | 1016.0 |
| 20260507113302 | 43 | 1 | 0.0 | 1.0 | 0.00 | 0.00 | 0.00 | 80 | 1015.8 |
| 20260507112800 | 43 | 353 | 0.0 | 0.0 | 0.00 | 0.00 | 0.00 | 81 | 1015.9 |
| 20260507112256 | 43 | 346 | 0.0 | 1.0 | 0.00 | 0.00 | 0.00 | 82 | 1015.8 |
| 20260507111755 | 43 | 357 | 0.0 | 0.0 | 0.00 | 0.00 | 0.00 | 82 | 1015.8 |
| 20260507111250 | 42 | 340 | 0.0 | 0.0 | 0.00 | 0.00 | 0.00 | 83 | 1015.7 |
| 20260507110746 | 42 | 27 | 0.0 | 0.0 | 0.00 | 0.00 | 0.00 | 83 | 1015.3 |
| 20260507110243 | 42 | 11 | 0.0 | 0.0 | 0.00 | 0.00 | 0.00 | 83 | 1015.4 |
| 20260507105740 | 42 | 22 | 1.0 | 1.0 | 0.00 | 0.00 | 0.00 | 83 | 1015.2 |
| 20260507105236 | 43 | 29 | 0.0 | 0.0 | 0.00 | 0.00 | 0.00 | 82 | 1015.2 |
| 20260507104734 | 43 | 30 | 0.0 | 0.0 | 0.00 | 0.00 | 0.00 | 82 | 1015.0 |
| 20260507104230 | 43 | 12 | 0.0 | 0.0 | 0.00 | 0.00 | 0.00 | 82 | 1015.0 |
| 20260507103726 | 43 | 27 | 0.0 | 0.0 | 0.00 | 0.00 | 0.00 | 82 | 1015.1 |
| 20260507103223 | 43 | 25 | 0.0 | 0.0 | 0.00 | 0.00 | 0.00 | 82 | 1015.1 |
| 20260507102719 | 43 | 36 | 0.0 | 0.0 | 0.00 | 0.00 | 0.00 | 81 | 1015.1 |
| 20260507102215 | 43 | 28 | 0.0 | 1.0 | 0.00 | 0.00 | 0.00 | 82 | 1014.9 |
| 20260507101712 | 43 | 26 | 0.0 | 0.0 | 0.00 | 0.00 | 0.00 | 82 | 1015.1 |
| 20260507101207 | 43 | 6 | 0.0 | 0.0 | 0.00 | 0.00 | 0.00 | 83 | 1015.0 |
| 20260507100705 | 43 | 45 | 0.0 | 0.0 | 0.00 | 0.00 | 0.00 | 84 | 1015.0 |
| 20260507100203 | 43 | 40 | 0.0 | 0.0 | 0.00 | 0.00 | 0.00 | 85 | 1015.2 |
| 20260507095701 | 44 | 10 | 0.0 | 0.0 | 0.00 | 0.00 | 0.00 | 85 | 1015.1 |
| 20260507095157 | 44 | 343 | 0.0 | 0.0 | 0.00 | 0.00 | 0.00 | 85 | 1015.0 |
| 20260507094653 | 44 | 27 | 0.0 | 0.0 | 0.00 | 0.00 | 0.00 | 85 | 1015.0 |
| 20260507094150 | 44 | 15 | 0.0 | 0.0 | 0.00 | 0.00 | 0.00 | 84 | 1015.2 |
| 20260507093648 | 44 | 5 | 0.0 | 0.0 | 0.00 | 0.00 | 0.00 | 84 | 1015.2 |
| 20260507093146 | 44 | 351 | 1.0 | 1.0 | 0.00 | 0.00 | 0.00 | 84 | 1015.1 |
| 20260507092643 | 44 | 6 | 0.0 | 0.0 | 0.00 | 0.00 | 0.00 | 83 | 1015.1 |
| 20260507092139 | 45 | 11 | 0.0 | 0.0 | 0.00 | 0.00 | 0.00 | 83 | 1015.2 |
| 20260507091636 | 45 | 26 | 0.0 | 0.0 | 0.00 | 0.00 | 0.00 | 83 | 1014.8 |
| 20260507091132 | 45 | 328 | 1.0 | 1.0 | 0.00 | 0.00 | 0.00 | 83 | 1014.9 |
| 20260507090628 | 44 | 13 | 0.0 | 0.0 | 0.00 | 0.00 | 0.00 | 84 | 1014.8 |
| 20260507090125 | 44 | 18 | 0.0 | 0.0 | 0.00 | 0.00 | 0.00 | 84 | 1014.8 |
| 20260507085622 | 45 | 22 | 0.0 | 0.0 | 0.00 | 0.00 | 0.00 | 85 | 1014.8 |
| 20260507085119 | 44 | 22 | 0.0 | 0.0 | 0.00 | 0.00 | 0.00 | 84 | 1014.8 |
| 20260507084615 | 45 | 17 | 0.0 | 0.0 | 0.00 | 0.00 | 0.00 | 84 | 1014.8 |
| 20260507084112 | 45 | 22 | 0.0 | 0.0 | 0.00 | 0.00 | 0.00 | 84 | 1014.7 |
| 20260507083609 | 45 | 11 | 0.0 | 0.0 | 0.00 | 0.00 | 0.00 | 84 | 1014.7 |
| 20260507083106 | 45 | 11 | 0.0 | 0.0 | 0.00 | 0.00 | 0.00 | 84 | 1014.4 |
| 20260507082602 | 45 | 29 | 0.0 | 0.0 | 0.00 | 0.00 | 0.00 | 84 | 1014.5 |
| 20260507082058 | 45 | 11 | 0.0 | 0.0 | 0.00 | 0.00 | 0.00 | 84 | 1014.7 |
| 20260507081554 | 45 | 22 | 0.0 | 0.0 | 0.00 | 0.00 | 0.00 | 85 | 1014.6 |
| 20260507081052 | 45 | 11 | 0.0 | 1.0 | 0.00 | 0.00 | 0.00 | 85 | 1014.5 |
| 20260507080547 | 46 | 25 | 0.0 | 0.0 | 0.00 | 0.00 | 0.00 | 84 | 1014.7 |
| 20260507080044 | 46 | 25 | 0.0 | 0.0 | 0.00 | 0.00 | 0.00 | 84 | 1014.5 |
| 20260507075539 | 46 | 26 | 0.0 | 0.0 | 0.00 | 0.00 | 0.00 | 84 | 1014.6 |
| 20260507075036 | 46 | 27 | 0.0 | 0.0 | 0.00 | 0.00 | 0.00 | 83 | 1014.6 |
| 20260507074533 | 47 | 23 | 0.0 | 0.0 | 0.00 | 0.00 | 0.00 | 82 | 1014.4 |
| 20260507074031 | 47 | 359 | 0.0 | 0.0 | 0.00 | 0.00 | 0.00 | 82 | 1014.4 |
| 20260507073527 | 47 | 358 | 0.0 | 1.0 | 0.00 | 0.00 | 0.00 | 81 | 1014.7 |
| 20260507073024 | 48 | 0 | 0.0 | 0.0 | 0.00 | 0.00 | 0.00 | 81 | 1014.7 |
| 20260507072521 | 48 | 37 | 0.0 | 0.0 | 0.00 | 0.00 | 0.00 | 80 | 1014.8 |
| 20260507072018 | 48 | 354 | 0.0 | 0.0 | 0.00 | 0.00 | 0.00 | 80 | 1014.5 |
| 20260507071516 | 48 | 0 | 0.0 | 0.0 | 0.00 | 0.00 | 0.00 | 80 | 1014.4 |
| 20260507071012 | 48 | 0 | 0.0 | 0.0 | 0.00 | 0.00 | 0.00 | 80 | 1014.7 |
| 20260507070509 | 48 | 355 | 0.0 | 1.0 | 0.00 | 0.00 | 0.00 | 80 | 1014.7 |
| 20260507070010 | 48 | 309 | 1.0 | 1.0 | 0.00 | 0.00 | 0.00 | 80 | 1014.7 |
| 20260507065502 | 48 | 5 | 0.0 | 0.0 | 0.00 | 0.00 | 0.00 | 80 | 1014.4 |
| 20260507065000 | 48 | 0 | 0.0 | 0.0 | 0.00 | 0.00 | 0.00 | 80 | 1014.8 |
| 20260507064458 | 48 | 357 | 0.0 | 1.0 | 0.00 | 0.00 | 0.00 | 80 | 1014.7 |
| 20260507063956 | 48 | 3 | 0.0 | 0.0 | 0.00 | 0.00 | 0.00 | 81 | 1014.6 |
| 20260507063452 | 48 | 7 | 0.0 | 0.0 | 0.00 | 0.00 | 0.00 | 81 | 1014.5 |
| 20260507062949 | 48 | 1 | 0.0 | 0.0 | 0.00 | 0.00 | 0.00 | 81 | 1014.6 |
| 20260507062447 | 48 | 1 | 0.0 | 0.0 | 0.00 | 0.00 | 0.00 | 80 | 1014.7 |
| 20260507061944 | 48 | 1 | 0.0 | 0.0 | 0.00 | 0.00 | 0.00 | 79 | 1014.6 |
| 20260507061442 | 48 | 3 | 0.0 | 0.0 | 0.00 | 0.00 | 0.00 | 79 | 1014.8 |
| 20260507060940 | 48 | 9 | 0.0 | 0.0 | 0.00 | 0.00 | 0.00 | 79 | 1014.8 |
| 20260507060436 | 48 | 11 | 0.0 | 0.0 | 0.00 | 0.00 | 0.00 | 80 | 1014.8 |
| 20260507055933 | 48 | 4 | 0.0 | 0.0 | 0.00 | 0.00 | 0.00 | 80 | 1014.8 |
| 20260507055428 | 48 | 10 | 0.0 | 0.0 | 0.00 | 0.00 | 0.00 | 80 | 1014.7 |
| 20260507054925 | 48 | 15 | 0.0 | 0.0 | 0.00 | 0.00 | 0.00 | 81 | 1014.8 |
| 20260507054421 | 48 | 20 | 0.0 | 0.0 | 0.00 | 0.00 | 0.00 | 82 | 1014.5 |
| 20260507053919 | 48 | 20 | 0.0 | 0.0 | 0.00 | 0.00 | 0.00 | 81 | 1014.9 |
| 20260507053411 | 48 | 20 | 0.0 | 0.0 | 0.00 | 0.00 | 0.00 | 81 | 1014.8 |
| 20260507052909 | 48 | 20 | 0.0 | 0.0 | 0.00 | 0.00 | 0.00 | 82 | 1014.7 |
| 20260507052406 | 48 | 18 | 0.0 | 0.0 | 0.00 | 0.00 | 0.00 | 83 | 1014.9 |
| 20260507051903 | 48 | 17 | 0.0 | 0.0 | 0.00 | 0.00 | 0.00 | 83 | 1014.6 |
| 20260507051401 | 48 | 26 | 0.0 | 0.0 | 0.00 | 0.00 | 0.00 | 83 | 1015.0 |
| 20260507050857 | 48 | 26 | 0.0 | 0.0 | 0.00 | 0.00 | 0.00 | 83 | 1014.9 |
| 20260507050354 | 48 | 26 | 0.0 | 0.0 | 0.00 | 0.00 | 0.00 | 83 | 1014.8 |
| 20260507045851 | 48 | 26 | 0.0 | 0.0 | 0.00 | 0.00 | 0.00 | 84 | 1014.9 |
| 20260507045347 | 48 | 26 | 0.0 | 0.0 | 0.00 | 0.00 | 0.00 | 84 | 1014.8 |
| 20260507044845 | 48 | 26 | 0.0 | 0.0 | 0.00 | 0.00 | 0.00 | 85 | 1014.9 |
| 20260507044341 | 47 | 26 | 0.0 | 0.0 | 0.00 | 0.00 | 0.00 | 86 | 1014.6 |
| 20260507043837 | 47 | 26 | 0.0 | 0.0 | 0.00 | 0.00 | 0.00 | 86 | 1014.9 |
| 20260507043334 | 47 | 26 | 0.0 | 0.0 | 0.00 | 0.00 | 0.00 | 86 | 1015.1 |
| 20260507042830 | 48 | 26 | 0.0 | 0.0 | 0.00 | 0.00 | 0.00 | 86 | 1014.9 |
| 20260507042326 | 48 | 26 | 0.0 | 0.0 | 0.00 | 0.00 | 0.00 | 85 | 1014.6 |
| 20260507041823 | 48 | 26 | 0.0 | 0.0 | 0.00 | 0.00 | 0.00 | 85 | 1015.1 |
| 20260507041319 | 48 | 26 | 0.0 | 0.0 | 0.00 | 0.00 | 0.00 | 84 | 1015.2 |
| 20260507040817 | 48 | 26 | 0.0 | 0.0 | 0.00 | 0.00 | 0.00 | 82 | 1015.2 |
| 20260507040312 | 48 | 26 | 0.0 | 0.0 | 0.00 | 0.00 | 0.00 | 82 | 1015.2 |
| 20260507035808 | 49 | 26 | 0.0 | 0.0 | 0.00 | 0.68 | 0.68 | 82 | 1015.3 |
| 20260507035306 | 49 | 23 | 0.0 | 0.0 | 0.00 | 0.68 | 0.68 | 82 | 1015.2 |
| 20260507034802 | 49 | 23 | 0.0 | 0.0 | 0.00 | 0.68 | 0.68 | 82 | 1015.1 |
| 20260507034259 | 49 | 24 | 0.0 | 0.0 | 0.00 | 0.68 | 0.68 | 83 | 1015.0 |
| 20260507033757 | 49 | 24 | 0.0 | 0.0 | 0.00 | 0.68 | 0.68 | 84 | 1015.2 |
| 20260507033254 | 49 | 24 | 0.0 | 0.0 | 0.00 | 0.68 | 0.68 | 84 | 1015.3 |
| 20260507032751 | 49 | 24 | 0.0 | 0.0 | 0.00 | 0.68 | 0.68 | 82 | 1015.0 |
| 20260507032247 | 50 | 22 | 0.0 | 0.0 | 0.00 | 0.68 | 0.68 | 83 | 1014.7 |
| 20260507031744 | 49 | 22 | 0.0 | 0.0 | 0.00 | 0.68 | 0.68 | 82 | 1014.8 |
| 20260507031241 | 50 | 22 | 0.0 | 0.0 | 0.00 | 0.68 | 0.68 | 83 | 1014.9 |
| 20260507030737 | 50 | 22 | 0.0 | 0.0 | 0.00 | 0.68 | 0.68 | 80 | 1014.7 |
| 20260507030235 | 50 | 23 | 0.0 | 0.0 | 0.00 | 0.68 | 0.68 | 80 | 1014.8 |
| 20260507025732 | 50 | 25 | 0.0 | 0.0 | 0.00 | 0.68 | 0.68 | 80 | 1014.7 |
| 20260507025229 | 50 | 25 | 0.0 | 0.0 | 0.00 | 0.68 | 0.68 | 80 | 1014.8 |
| 20260507024727 | 50 | 25 | 0.0 | 0.0 | 0.00 | 0.68 | 0.68 | 80 | 1015.0 |
| 20260507024224 | 51 | 25 | 0.0 | 0.0 | 0.00 | 0.68 | 0.68 | 80 | 1014.9 |
| 20260507023720 | 51 | 25 | 0.0 | 0.0 | 0.00 | 0.68 | 0.68 | 80 | 1014.8 |
| 20260507023217 | 51 | 25 | 0.0 | 0.0 | 0.00 | 0.68 | 0.68 | 80 | 1014.7 |
| 20260507022714 | 51 | 25 | 0.0 | 0.0 | 0.00 | 0.68 | 0.68 | 80 | 1014.5 |
| 20260507022209 | 51 | 25 | 0.0 | 0.0 | 0.00 | 0.68 | 0.68 | 79 | 1014.6 |
| 20260507021706 | 51 | 26 | 0.0 | 0.0 | 0.00 | 0.68 | 0.68 | 79 | 1014.5 |
| 20260507021201 | 51 | 25 | 0.0 | 0.0 | 0.00 | 0.68 | 0.68 | 80 | 1014.5 |
| 20260507020701 | 51 | 25 | 0.0 | 0.0 | 0.00 | 0.68 | 0.68 | 81 | 1014.3 |
| 20260507020156 | 51 | 12 | 0.0 | 0.0 | 0.00 | 0.68 | 0.68 | 82 | 1014.4 |
| 20260507015654 | 51 | 12 | 0.0 | 0.0 | 0.00 | 0.68 | 0.68 | 81 | 1014.5 |
| 20260507015151 | 51 | 12 | 0.0 | 0.0 | 0.00 | 0.68 | 0.68 | 81 | 1014.3 |
| 20260507014648 | 52 | 12 | 0.0 | 0.0 | 0.00 | 0.68 | 0.68 | 82 | 1014.2 |
| 20260507014144 | 52 | 12 | 0.0 | 0.0 | 0.00 | 0.68 | 0.68 | 80 | 1014.3 |
| 20260507013641 | 52 | 12 | 0.0 | 0.0 | 0.00 | 0.68 | 0.68 | 79 | 1014.3 |
| 20260507013138 | 52 | 12 | 0.0 | 0.0 | 0.00 | 0.68 | 0.68 | 81 | 1014.7 |
| 20260507012635 | 52 | 12 | 0.0 | 0.0 | 0.00 | 0.68 | 0.68 | 80 | 1014.6 |
| 20260507012130 | 52 | 12 | 0.0 | 0.0 | 0.00 | 0.68 | 0.68 | 81 | 1014.2 |
| 20260507011629 | 52 | 12 | 0.0 | 0.0 | 0.00 | 0.68 | 0.68 | 78 | 1014.2 |
| 20260507011125 | 52 | 12 | 0.0 | 0.0 | 0.00 | 0.68 | 0.68 | 77 | 1014.2 |
| 20260507010620 | 53 | 12 | 0.0 | 0.0 | 0.00 | 0.68 | 0.68 | 78 | 1014.3 |
| 20260507010116 | 53 | 12 | 0.0 | 0.0 | 0.00 | 0.68 | 0.68 | 77 | 1014.3 |
| 20260507005614 | 54 | 12 | 0.0 | 0.0 | 0.00 | 0.68 | 0.68 | 77 | 1014.1 |
| 20260507005110 | 54 | 12 | 0.0 | 0.0 | 0.00 | 0.68 | 0.68 | 73 | 1014.0 |
| 20260507004607 | 55 | 12 | 0.0 | 0.0 | 0.00 | 0.68 | 0.68 | 72 | 1013.9 |
| 20260507004104 | 55 | 12 | 0.0 | 0.0 | 0.00 | 0.68 | 0.68 | 71 | 1014.1 |
| 20260507003600 | 55 | 12 | 0.0 | 0.0 | 0.00 | 0.68 | 0.68 | 70 | 1014.0 |
| 20260507003055 | 55 | 16 | 0.0 | 0.0 | 0.00 | 0.68 | 0.68 | 67 | 1014.1 |
| 20260507002552 | 56 | 12 | 0.0 | 0.0 | 0.00 | 0.68 | 0.68 | 65 | 1013.9 |
| 20260507002048 | 56 | 1 | 0.0 | 1.0 | 0.00 | 0.68 | 0.68 | 65 | 1014.0 |
| 20260507001544 | 56 | 5 | 0.0 | 1.0 | 0.00 | 0.68 | 0.68 | 64 | 1013.9 |
| 20260507001042 | 56 | 4 | 0.0 | 0.0 | 0.00 | 0.68 | 0.68 | 64 | 1014.0 |
| 20260507000538 | 56 | 344 | 0.0 | 0.0 | 0.00 | 0.68 | 0.68 | 64 | 1013.6 |
| 20260507000034 | 56 | 12 | 0.0 | 0.0 | 0.00 | 0.68 | 0.68 | 64 | 1013.6 |
| 20260506235532 | 56 | 7 | 1.0 | 1.0 | 0.00 | 0.68 | 0.68 | 63 | 1013.5 |
| 20260506235027 | 56 | 346 | 1.0 | 2.0 | 0.00 | 0.68 | 0.68 | 63 | 1013.7 |
| 20260506234525 | 57 | 312 | 2.0 | 2.0 | 0.00 | 0.68 | 0.68 | 62 | 1013.9 |
| 20260506234022 | 57 | 350 | 1.0 | 1.0 | 0.00 | 0.68 | 0.68 | 64 | 1013.6 |
| 20260506233518 | 57 | 280 | 0.0 | 1.0 | 0.00 | 0.68 | 0.68 | 63 | 1013.7 |
| 20260506233015 | 57 | 348 | 1.0 | 1.0 | 0.00 | 0.68 | 0.68 | 63 | 1013.4 |
| 20260506232511 | 57 | 284 | 3.0 | 5.0 | 0.00 | 0.68 | 0.68 | 63 | 1013.5 |
| 20260506232007 | 58 | 31 | 0.0 | 0.0 | 0.00 | 0.68 | 0.68 | 65 | 1013.5 |
| 20260506231505 | 58 | 299 | 1.0 | 1.0 | 0.00 | 0.68 | 0.68 | 64 | 1013.6 |
| 20260506231002 | 58 | 25 | 0.0 | 0.0 | 0.00 | 0.68 | 0.68 | 63 | 1013.3 |
| 20260506230458 | 58 | 310 | 1.0 | 1.0 | 0.00 | 0.68 | 0.68 | 63 | 1013.1 |
| 20260506225955 | 58 | 14 | 0.0 | 0.0 | 0.00 | 0.68 | 0.68 | 63 | 1013.0 |
| 20260506225452 | 58 | 347 | 0.0 | 1.0 | 0.00 | 0.68 | 0.68 | 61 | 1012.8 |
| 20260506224949 | 58 | 338 | 0.0 | 1.0 | 0.00 | 0.68 | 0.68 | 62 | 1012.8 |
| 20260506224446 | 59 | 334 | 1.0 | 1.0 | 0.00 | 0.68 | 0.68 | 63 | 1013.0 |
| 20260506223937 | 59 | 276 | 1.0 | 2.0 | 0.00 | 0.68 | 0.68 | 62 | 1012.9 |
| 20260506223432 | 59 | 6 | 0.0 | 0.0 | 0.00 | 0.68 | 0.68 | 63 | 1012.9 |
| 20260506222930 | 59 | 357 | 0.0 | 1.0 | 0.00 | 0.68 | 0.68 | 60 | 1012.9 |
| 20260506222426 | 59 | 24 | 0.0 | 1.0 | 0.00 | 0.68 | 0.68 | 60 | 1012.8 |
| 20260506221923 | 59 | 22 | 0.0 | 1.0 | 0.00 | 0.68 | 0.68 | 61 | 1012.8 |
| 20260506221420 | 59 | 350 | 1.0 | 1.0 | 0.00 | 0.68 | 0.68 | 59 | 1012.8 |
| 20260506220918 | 59 | 241 | 2.0 | 3.0 | 0.00 | 0.68 | 0.68 | 59 | 1012.7 |
| 20260506220413 | 59 | 6 | 0.0 | 0.0 | 0.00 | 0.68 | 0.68 | 59 | 1012.8 |
| 20260506215910 | 60 | 14 | 0.0 | 0.0 | 0.00 | 0.68 | 0.68 | 58 | 1012.9 |
| 20260506215406 | 60 | 342 | 0.0 | 1.0 | 0.00 | 0.68 | 0.68 | 59 | 1013.0 |
| 20260506214902 | 60 | 337 | 1.0 | 2.0 | 0.00 | 0.68 | 0.68 | 57 | 1013.2 |
| 20260506214359 | 60 | 277 | 1.0 | 3.0 | 0.00 | 0.68 | 0.68 | 60 | 1012.9 |
| 20260506213857 | 60 | 321 | 1.0 | 1.0 | 0.00 | 0.68 | 0.68 | 59 | 1013.4 |
| 20260506213354 | 60 | 288 | 1.0 | 2.0 | 0.00 | 0.68 | 0.68 | 59 | 1013.3 |
| 20260506212851 | 60 | 31 | 0.0 | 0.0 | 0.00 | 0.68 | 0.68 | 60 | 1013.2 |
| 20260506212347 | 60 | 19 | 0.0 | 0.0 | 0.00 | 0.68 | 0.68 | 60 | 1013.2 |
| 20260506211842 | 60 | 78 | 0.0 | 0.0 | 0.00 | 0.68 | 0.68 | 59 | 1013.1 |
| 20260506211338 | 60 | 16 | 0.0 | 0.0 | 0.00 | 0.68 | 0.68 | 61 | 1013.2 |
| 20260506210836 | 60 | 348 | 1.0 | 1.0 | 0.00 | 0.68 | 0.68 | 60 | 1013.0 |
| 20260506210333 | 60 | 315 | 1.0 | 1.0 | 0.00 | 0.68 | 0.68 | 60 | 1013.1 |
| 20260506205830 | 60 | 305 | 2.0 | 3.0 | 0.00 | 0.68 | 0.68 | 60 | 1013.2 |
| 20260506205325 | 60 | 31 | 0.0 | 0.0 | 0.00 | 0.68 | 0.68 | 60 | 1013.2 |
| 20260506204817 | 60 | 18 | 0.0 | 1.0 | 0.00 | 0.68 | 0.68 | 61 | 1012.9 |
| 20260506204314 | 61 | 31 | 0.0 | 1.0 | 0.00 | 0.68 | 0.68 | 58 | 1012.9 |
| 20260506203812 | 60 | 10 | 0.0 | 1.0 | 0.00 | 0.68 | 0.68 | 57 | 1012.7 |
| 20260506203309 | 61 | 42 | 1.0 | 2.0 | 0.00 | 0.68 | 0.68 | 55 | 1012.8 |
| 20260506202806 | 61 | 342 | 0.0 | 1.0 | 0.00 | 0.68 | 0.68 | 56 | 1012.8 |
| 20260506202306 | 61 | 11 | 0.0 | 0.0 | 0.00 | 0.68 | 0.68 | 56 | 1013.1 |
| 20260506201759 | 60 | 27 | 0.0 | 0.0 | 0.00 | 0.68 | 0.68 | 53 | 1013.0 |
| 20260506201256 | 60 | 8 | 0.0 | 0.0 | 0.00 | 0.68 | 0.68 | 56 | 1013.4 |
| 20260506200753 | 60 | 322 | 1.0 | 1.0 | 0.00 | 0.68 | 0.68 | 55 | 1013.3 |
| 20260506200243 | 60 | 341 | 1.0 | 2.0 | 0.00 | 0.68 | 0.68 | 54 | 1013.1 |
| 20260506195740 | 61 | 49 | 0.0 | 0.0 | 0.00 | 0.68 | 0.68 | 55 | 1013.0 |
| 20260506195236 | 61 | 18 | 0.0 | 1.0 | 0.00 | 0.68 | 0.68 | 55 | 1013.1 |
| 20260506194734 | 60 | 287 | 2.0 | 2.0 | 0.00 | 0.68 | 0.68 | 55 | 1013.1 |
| 20260506194230 | 61 | 350 | 2.0 | 2.0 | 0.00 | 0.68 | 0.68 | 56 | 1013.1 |
| 20260506193728 | 62 | 30 | 0.0 | 0.0 | 0.00 | 0.68 | 0.68 | 56 | 1012.8 |
| 20260506193224 | 62 | 10 | 0.0 | 1.0 | 0.00 | 0.68 | 0.68 | 58 | 1013.0 |
| 20260506192721 | 62 | 56 | 1.0 | 1.0 | 0.00 | 0.68 | 0.68 | 58 | 1013.3 |
| 20260506192218 | 62 | 349 | 1.0 | 2.0 | 0.00 | 0.68 | 0.68 | 56 | 1013.1 |
| 20260506191715 | 62 | 34 | 2.0 | 2.0 | 0.00 | 0.68 | 0.68 | 57 | 1013.4 |
| 20260506191211 | 63 | 35 | 0.0 | 0.0 | 0.00 | 0.68 | 0.68 | 56 | 1013.3 |
| 20260506190708 | 63 | 95 | 1.0 | 2.0 | 0.00 | 0.68 | 0.68 | 56 | 1013.2 |
| 20260506190204 | 62 | 16 | 1.0 | 1.0 | 0.00 | 0.68 | 0.68 | 60 | 1013.1 |
| 20260506185702 | 62 | 304 | 2.0 | 2.0 | 0.00 | 0.68 | 0.68 | 56 | 1013.0 |
| 20260506185158 | 62 | 14 | 1.0 | 2.0 | 0.00 | 0.68 | 0.68 | 57 | 1012.9 |
| 20260506184656 | 63 | 17 | 1.0 | 2.0 | 0.00 | 0.68 | 0.68 | 57 | 1012.8 |
| 20260506184153 | 62 | 25 | 1.0 | 1.0 | 0.00 | 0.68 | 0.68 | 58 | 1012.9 |
| 20260506183650 | 62 | 322 | 0.0 | 1.0 | 0.00 | 0.68 | 0.68 | 60 | 1012.9 |
| 20260506183145 | 62 | 286 | 2.0 | 2.0 | 0.00 | 0.68 | 0.68 | 56 | 1012.8 |
| 20260506182643 | 62 | 345 | 1.0 | 2.0 | 0.00 | 0.68 | 0.68 | 59 | 1012.8 |
| 20260506182140 | 62 | 304 | 2.0 | 2.0 | 0.00 | 0.68 | 0.68 | 61 | 1012.6 |
| 20260506181638 | 62 | 14 | 0.0 | 0.0 | 0.00 | 0.68 | 0.68 | 59 | 1012.3 |
| 20260506181135 | 62 | 333 | 1.0 | 1.0 | 0.00 | 0.68 | 0.68 | 61 | 1012.6 |
| 20260506180632 | 62 | 283 | 1.0 | 1.0 | 0.00 | 0.68 | 0.68 | 60 | 1012.6 |
| 20260506180128 | 61 | 352 | 1.0 | 2.0 | 0.00 | 0.68 | 0.68 | 60 | 1012.8 |
| 20260506175624 | 61 | 311 | 1.0 | 2.0 | 0.00 | 0.68 | 0.68 | 59 | 1012.6 |
| 20260506175120 | 61 | 343 | 1.0 | 2.0 | 0.00 | 0.68 | 0.68 | 64 | 1012.8 |
| 20260506174619 | 61 | 35 | 1.0 | 1.0 | 0.00 | 0.68 | 0.68 | 60 | 1012.8 |
| 20260506174116 | 61 | 16 | 0.0 | 1.0 | 0.00 | 0.68 | 0.68 | 63 | 1013.1 |
| 20260506173613 | 60 | 285 | 3.0 | 3.0 | 0.00 | 0.68 | 0.68 | 62 | 1012.8 |
| 20260506173110 | 60 | 7 | 1.0 | 2.0 | 0.00 | 0.68 | 0.68 | 64 | 1013.0 |
| 20260506172607 | 60 | 278 | 1.0 | 2.0 | 0.00 | 0.68 | 0.68 | 65 | 1013.0 |
| 20260506172103 | 59 | 347 | 1.0 | 1.0 | 0.00 | 0.68 | 0.68 | 65 | 1013.1 |
| 20260506171601 | 59 | 339 | 2.0 | 5.0 | 0.00 | 0.68 | 0.68 | 65 | 1013.0 |
| 20260506171059 | 59 | 72 | 0.0 | 0.0 | 0.00 | 0.68 | 0.68 | 64 | 1013.2 |
| 20260506170556 | 59 | 353 | 3.0 | 5.0 | 0.00 | 0.68 | 0.68 | 66 | 1013.4 |
| 20260506170053 | 59 | 306 | 1.0 | 2.0 | 0.00 | 0.68 | 0.68 | 67 | 1013.5 |